Location: Ahausen
(50.4985°N, 8.2722°E)
Time: 21:19:05
(UTC+00:00)

CAS-6 - Visible Passes

Search period start: 27 June 2022 00:00
Search period end: 07 July 2022 00:00
Orbit: 613 x 635 km, 97.9° (Epoch: 27 June)

Date Brightness Start Highest point End Pass type
(mag) Time Alt. Az. Time Alt. Az. Time Alt. Az.
27 Jun ? 20:25:27 10° ESE 20:28:53 23° ENE 20:32:19 10° N visible
27 Jun ? 22:01:40 17° S 22:04:49 48° W 22:09:03 10° NNW visible
28 Jun ? 20:43:17 10° SE 20:47:10 32° ENE 20:51:04 10° N visible
28 Jun ? 22:20:19 15° SSW 22:23:21 32° W 22:27:17 10° NNW visible
29 Jun ? 21:01:43 12° SE 21:05:31 46° ENE 21:09:41 10° N visible
29 Jun ? 22:38:58 12° SW 22:41:55 22° W 22:45:21 10° NW visible
30 Jun ? 21:20:22 15° SSE 21:23:53 69° ENE 21:28:13 10° N visible
30 Jun ? 22:57:58 10° SW 23:00:33 15° W 23:03:07 10° NW visible
01 Jul ? 21:39:01 17° S 21:42:18 80° WSW 21:46:40 10° NNW visible
01 Jul ? 23:18:56 10° W 23:19:13 10° W 23:19:30 10° W visible
02 Jul ? 20:21:37 10° ESE 20:24:53 21° ENE 20:28:10 10° NNE visible
02 Jul ? 21:57:40 18° S 22:00:46 53° W 22:05:02 10° NNW visible
03 Jul ? 20:39:23 10° SE 20:43:10 30° ENE 20:46:56 10° N visible
03 Jul ? 22:16:19 16° SSW 22:19:17 35° W 22:23:17 10° NNW visible
04 Jul ? 20:57:44 12° SE 21:01:28 43° ENE 21:05:35 10° N visible
04 Jul ? 22:34:58 13° SW 22:37:50 24° W 22:41:23 10° NW visible
05 Jul ? 21:16:23 15° SSE 21:19:50 63° ENE 21:24:08 10° N visible
05 Jul ? 22:53:39 10° SW 22:56:27 17° W 22:59:14 10° NW visible
06 Jul ? 21:35:02 18° SSE 21:38:14 87° WSW 21:42:35 10° NNW visible
06 Jul ? 23:13:52 10° WSW 23:15:07 11° W 23:16:20 10° WNW visible
